Dewpoint
63 64 63 64 64 63 62 63 62 62 61 61 61 62 62 62 62 63 63 63 63 62 63 64 64 64 65 65 65 65 65 64 64 65 66 65 64 64 64 63 62 63 63 63 63 63 62 61 62 63 64 65 65 64 65 66 66 68 69 69 68 69 69 66 66 66 67 66 63 62 64 68 68 69 68 70 74 74 73 75 75 74 75 73 74
64 65 64 63 63 63 62 62 61 61 60 60 61 62 62 61 62 63 62 63 63 62 64 63 64 64 64 65 66 67 67 65 64 65 64 66 65 64 64 64 63 62 62 61 63 63 62 63 62 61 63 62 63 64 63 64 65 64 65 67 68 66 67 66 66 65 65 65 65 65 63 64 66 68 69 70 72 73 74 75 76 75 76 75 73
62 65 64 63 63 63 63 62 62 61 60 60 58 57 56 59 60 61 61 61 62 63 63 63 64 65 65 65 67 68 67 65 64 64 65 65 65 64 64 65 63 62 60 60 60 60 61 62 61 61 61 62 63 64 64 64 65 64 64 64 65 66 66 68 67 64 63 64 64 63 64 63 64 64 65 67 70 74 73 73 74 73 73 74 75
58 63 64 63 63 63 63 62 61 59 57 58 58 57 56 57 58 59 60 60 61 63 64 64 65 66 66 66 67 67 66 66 65 63 64 64 64 65 64 64 63 61 60 60 60 60 61 61 61 61 62 62 62 65 66 65 64 65 64 65 67 67 64 66 67 65 63 61 63 63 63 62 65 66 65 67 69 73 73 73 75 73 73 73 74
60 61 61 61 62 63 63 61 60 59 59 56 57 55 53 54 57 59 60 61 63 63 63 64 65 66 66 66 66 66 65 64 65 65 65 65 64 63 64 65 64 60 59 60 59 60 60 59 60 60 62 63 60 64 66 66 65 64 63 64 65 66 66 67 68 69 67 63 62 64 65 64 63 66 65 67 69 71 71 72 72 73 73 73 72
60 60 58 59 62 62 62 61 59 59 58 58 57 58 58 59 57 54 56 55 57 56 58 59 63 65 66 65 66 66 66 66 66 66 64 64 64 64 64 63 61 59 59 59 59 59 59 60 59 60 60 62 60 64 63 66 63 65 64 62 63 65 66 65 67 67 67 66 65 63 65 63 65 65 66 68 66 68 69 72 73 73 73 71 71
63 61 59 58 61 61 60 60 59 58 58 58 59 57 56 54 54 56 55 55 54 55 57 58 59 63 65 65 64 64 65 66 66 66 66 64 63 63 63 63 60 59 60 59 58 58 58 59 59 59 60 61 63 63 62 65 65 65 65 63 63 65 67 65 66 66 66 66 66 65 63 63 64 65 66 68 70 70 68 70 72 72 71 71 71
64 63 61 61 62 60 60 60 59 59 59 60 59 59 59 59 60 59 57 55 52 54 54 57 57 58 59 61 64 65 66 66 66 66 66 64 63 63 62 61 60 59 59 58 58 58 58 59 59 59 61 62 63 63 63 63 66 65 65 64 63 64 64 65 64 65 66 65 65 64 65 64 66 66 66 69 70 70 68 69 69 69 70 72 71
64 62 62 63 63 62 61 60 59 59 59 60 60 60 60 60 60 58 57 56 55 54 56 57 58 59 60 61 64 66 65 65 66 65 64 62 62 62 62 62 60 58 59 59 58 58 59 60 59 59 62 59 59 59 60 59 64 65 67 66 65 65 65 63 62 63 64 65 65 64 64 64 64 64 65 68 67 66 68 72 69 70 70 70 72
64 63 61 62 63 62 61 61 61 60 60 60 61 61 59 59 58 57 57 55 56 57 59 60 58 59 59 60 62 65 65 66 64 63 61 62 62 62 61 62 62 60 59 58 57 57 57 59 61 60 58 59 58 58 58 58 58 61 65 67 68 67 64 64 65 65 64 61 61 61 61 61 63 64 65 66 67 67 66 69 68 68 69 70 71
65 63 63 63 63 62 61 61 61 60 60 60 60 61 61 59 58 57 57 58 57 60 59 59 57 57 57 59 61 64 64 65 63 60 60 61 63 62 61 61 61 60 58 58 58 58 58 59 60 60 60 59 60 58 58 57 57 57 57 59 61 64 66 66 64 64 65 63 62 62 61 63 62 63 63 62 62 64 65 69 68 69 71 70 68
63 63 63 63 62 61 60 60 60 59 59 60 61 61 60 59 58 58 57 56 57 57 57 58 59 59 59 60 61 63 63 63 60 60 60 60 60 64 61 60 61 61 59 59 58 58 59 58 59 59 59 59 59 59 58 56 56 56 56 56 57 59 60 65 64 64 66 63 63 63 62 62 63 63 62 59 62 64 65 65 68 69 68 66 68
62 62 62 62 62 61 61 60 59 60 60 60 61 60 60 59 57 56 55 56 56 57 58 57 58 58 59 59 59 60 60 62 59 59 59 59 59 62 61 60 61 61 61 61 59 58 59 60 59 59 59 57 59 58 58 58 55 55 54 55 56 56 58 59 60 65 63 64 63 63 64 63 62 63 63 63 64 63 63 65 68 69 68 69 69
60 61 62 61 61 60 59 59 59 59 60 60 61 61 59 58 57 55 54 56 56 56 56 57 57 58 57 57 58 59 61 60 60 59 58 58 59 60 62 60 60 61 62 62 61 60 60 60 60 59 59 59 59 58 58 57 57 57 58 60 61 61 57 58 58 59 61 63 64 63 64 64 63 64 64 65 64 64 64 69 70 69 70 69 70
60 60 59 59 60 60 59 59 59 60 61 61 61 61 59 57 56 55 53 53 54 56 56 56 57 57 56 55 55 55 56 60 59 59 58 57 57 59 63 60 61 61 62 62 61 62 61 60 61 60 60 60 60 58 57 56 56 56 56 57 58 60 63 64 63 63 64 63 63 64 65 65 64 64 65 64 65 67 68 66 68 69 70 70 70
59 60 58 58 58 59 59 59 60 62 61 61 61 60 57 56 56 55 56 55 56 55 56 57 58 58 57 56 55 57 54 59 58 58 57 57 57 64 60 59 60 60 62 63 63 63 62 61 61 60 60 60 57 55 55 56 56 56 56 56 57 58 60 59 61 62 64 64 64 63 62 62 60 64 64 65 70 69 64 68 70 70 70 69 68
59 59 58 57 57 57 58 58 59 59 59 59 60 58 56 55 54 55 56 55 53 52 54 52 56 59 60 60 57 57 57 59 56 56 56 56 57 62 58 57 59 61 63 63 64 62 62 62 61 62 61 60 57 55 54 52 56 56 57 57 57 57 59 62 59 58 59 58 58 59 59 58 58 58 58 59 65 66 65 63 64 66 68 67 66
57 58 56 57 57 59 59 59 58 58 59 59 58 56 54 55 54 57 55 53 52 53 54 51 53 59 58 57 56 59 55 55 54 53 53 55 59 63 59 57 58 61 62 64 65 63 63 62 62 62 61 61 57 54 54 54 56 56 56 56 56 57 58 60 62 64 57 57 58 59 59 59 59 59 59 59 59 63 67 65 61 61 62 65 65
56 55 56 57 58 59 58 58 58 57 58 57 57 55 56 56 55 58 57 56 57 61 58 58 59 61 54 52 57 58 58 56 52 53 53 54 59 65 63 59 59 60 60 64 65 64 63 62 60 59 59 59 54 53 53 52 55 56 57 57 56 56 58 60 62 62 64 63 64 64 64 60 64 66 66 59 61 64 64 63 62 61 60 61 62
57 56 56 57 58 60 59 59 59 59 58 58 59 59 59 57 56 55 55 53 55 57 60 58 58 59 59 59 59 54 57 60 57 53 53 53 54 65 63 61 60 60 61 64 65 63 64 63 62 57 55 54 52 51 50 50 53 56 58 57 56 56 57 60 62 63 64 64 64 65 65 64 64 65 66 67 65 66 64 63 63 62 62 62 62
57 56 57 59 59 59 58 58 58 57 57 59 61 59 58 56 56 59 57 54 57 58 59 58 58 59 58 58 57 59 59 53 54 55 53 53 54 56 64 64 61 60 61 63 64 62 63 63 63 58 55 53 52 50 48 49 50 57 58 56 56 56 55 58 62 59 64 65 65 65 64 64 63 62 63 67 67 66 64 63 63 63 62 61 60
57 59 63 62 59 58 58 59 58 57 58 63 61 59 59 59 56 55 56 59 59 59 59 59 59 59 60 58 60 60 59 60 62 59 55 53 52 54 62 64 63 62 63 63 62 62 64 64 62 60 55 53 51 48 48 49 51 59 58 50 51 54 60 62 63 64 65 66 66 66 66 67 67 65 62 63 65 66 65 63 62 62 63 62 62
65 65 62 60 60 59 59 59 59 59 63 61 59 58 60 59 58 59 59 60 60 59 60 59 58 56 56 57 58 58 61 62 60 60 57 56 54 53 53 57 59 61 61 60 62 63 64 64 63 58 53 50 48 47 48 50 53 56 50 51 52 54 58 62 64 65 66 65 65 67 66 65 64 64 65 64 63 64 64 64 64 63 64 64 64
65 60 59 59 57 56 57 58 60 62 61 61 60 59 58 58 57 59 60 58 58 58 59 58 58 57 55 57 57 60 62 62 61 60 62 58 54 51 50 50 51 58 62 62 63 64 64 63 62 52 49 46 47 48 50 52 56 51 51 52 54 56 60 60 60 63 64 66 67 67 67 67 67 68 67 67 65 68 67 66 66 65 65 66 68
60 59 57 57 57 57 57 58 59 59 60 59 59 57 57 57 56 59 58 55 56 57 57 57 57 55 56 57 60 58 58 61 61 61 60 59 55 51 51 51 51 50 58 61 64 64 60 53 50 49 50 49 50 53 55 55 54 53 53 54 55 60 60 60 59 59 59 59 62 64 65 67 67 67 67 68 68 69 69 67 67 68 69 72 72
59 59 56 56 56 58 57 56 58 59 59 57 57 57 57 56 54 56 56 55 56 57 57 58 58 56 56 57 58 57 59 60 62 61 58 58 56 55 53 53 54 55 56 60 57 55 54 52 51 52 54 57 62 61 61 60 56 56 56 57 60 60 60 59 59 58 57 58 59 59 60 62 65 67 68 68 68 67 67 67 67 68 69 70 70
59 58 57 56 59 59 56 52 52 56 59 57 55 55 54 54 55 55 54 52 54 55 56 56 57 57 57 57 59 57 56 60 61 58 57 56 56 57 58 57 56 56 56 55 58 58 59 61 60 56 55 55 57 57 58 59 61 60 61 60 60 61 60 60 60 57 59 58 58 59 60 61 61 62 65 66 66 67 68 67 67 68 67 67 67
58 57 57 57 57 58 55 53 54 52 53 54 51 52 57 58 59 54 53 53 54 55 55 55 55 56 55 54 55 55 54 56 57 55 54 54 54 54 56 57 56 57 54 54 58 56 56 57 60 63 64 61 62 62 61 61 61 61 61 61 60 61 61 60 60 60 60 60 59 59 59 59 60 61 62 62 62 65 66 68 67 67 67 66 65
58 57 56 55 57 56 55 57 55 54 55 57 54 54 58 55 54 57 61 59 58 55 55 54 55 53 52 54 58 55 56 55 55 48 49 46 47 49 52 53 53 54 54 49 54 55 59 53 55 54 55 55 57 57 60 61 61 61 59 61 60 60 60 60 59 59 59 59 59 59 59 59 59 60 60 61 61 63 64 66 66 66 66 67 65
57 52 54 54 52 53 55 53 54 54 51 50 53 57 52 44 49 58 56 51 48 44 47 56 53 54 54 56 57 54 53 52 46 42 41 40 40 40 40 40 40 45 45 47 50 55 54 52 52 52 52 53 53 54 55 58 58 59 60 58 60 60 60 59 60 60 59 59 59 58 58 58 58 59 60 59 60 61 61 61 63 63 63 62 61
54 51 53 51 52 54 52 51 54 57 57 54 54 54 55 54 44 44 49 49 45 42 42 42 44 47 53 54 53 50 49 44 40 40 40 40 40 41 41 40 40 41 43 54 59 53 52 52 50 51 50 49 50 50 51 53 56 57 57 58 58 57 58 59 60 59 59 59 59 59 58 58 58 58 58 59 59 59 60 60 61 61 61 60 60
55 53 52 53 58 56 52 54 54 53 54 55 56 56 55 58 55 46 43 45 44 42 41 41 41 42 44 47 50 53 47 42 40 40 40 40 40 41 41 41 41 42 44 46 53 51 49 49 49 48 48 48 48 49 49 49 51 52 53 54 54 54 54 55 57 60 59 59 59 59 59 59 58 58 58 58 58 59 59 59 59 60 59 59 59
54 52 54 55 54 56 53 54 55 55 55 56 56 57 58 59 55 53 52 43 42 42 41 41 41 42 41 41 41 41 40 40 40 40 40 39 39 41 43 41 42 42 46 50 50 48 47 47 46 47 46 46 46 47 47 47 48 48 49 50 51 53 53 52 54 56 57 58 59 59 60 59 59 58 57 58 58 58 59 59 59 59 59 58 59
55 52 51 53 54 55 54 56 56 56 57 59 59 59 59 59 58 55 54 54 53 48 44 42 43 43 41 41 41 41 40 40 40 40 40 40 40 40 40 52 42 42 45 49 47 49 47 45 45 45 45 45 44 45 45 46 47 47 47 47 48 51 53 52 53 53 54 55 57 59 59 59 59 59 59 59 59 59 58 58 59 59 59 58 58
55 55 53 54 54 56 56 56 55 54 55 57 58 57 57 59 58 57 56 55 55 56 55 53 47 44 50 47 42 41 40 40 40 40 40 40 41 41 41 54 49 48 49 49 48 48 46 45 45 44 43 43 44 44 44 44 45 46 46 46 46 46 49 49 50 50 53 54 55 55 56 57 59 58 59 59 59 58 58 58 59 59 58 58 58
56 55 57 55 55 56 57 56 56 58 58 57 58 57 57 56 56 56 57 56 55 54 53 54 54 48 46 44 44 42 41 40 40 40 40 40 40 42 50 48 47 46 45 45 45 44 43 42 42 42 42 42 43 42 43 43 44 44 45 45 45 44 45 46 47 49 50 51 53 55 54 55 56 57 59 59 59 59 59 58 58 59 59 58 58
56 56 56 58 58 58 57 56 59 58 57 58 58 59 58 58 57 57 56 53 53 52 52 53 53 52 51 51 49 45 42 41 41 40 40 40 41 46 46 44 44 44 44 42 43 43 41 41 41 41 40 40 40 39 40 41 42 43 44 45 46 44 44 45 46 49 48 48 49 51 53 55 56 56 57 57 58 58 59 59 59 58 58 57 57
57 57 58 60 59 58 58 58 57 57 58 58 59 59 57 55 54 55 52 50 50 49 48 50 50 49 49 50 51 51 52 43 43 43 43 43 46 44 44 45 44 43 42 41 41 41 42 40 40 39 38 38 38 38 38 38 39 40 41 43 44 44 43 45 46 47 49 49 50 49 50 51 52 55 56 56 57 59 59 59 59 59 58 58 58
59 57 57 57 56 57 57 57 57 56 57 57 56 56 55 54 53 51 51 50 48 47 47 47 46 47 47 48 50 50 50 48 47 46 46 45 45 45 42 42 43 43 40 39 39 40 39 38 38 38 38 37 37 37 37 36 37 38 40 39 39 40 40 41 42 43 45 47 48 49 49 49 50 51 52 53 55 58 59 60 59 59 59 59 60
55 55 56 56 57 57 58 57 56 56 56 54 55 54 53 52 52 51 50 49 47 46 45 45 46 46 46 47 46 47 48 46 45 45 44 44 43 43 41 42 43 41 40 40 39 38 38 38 38 37 38 37 37 36 35 36 36 36 37 37 37 38 38 38 39 40 41 43 47 48 49 49 49 50 50 52 52 54 56 57 59 58 59 59 60
56 56 56 56 56 56 57 56 56 56 55 55 52 51 50 50 50 48 46 45 45 44 45 46 45 45 44 44 42 43 46 44 44 44 43 42 42 40 39 39 39 38 38 38 38 38 38 38 36 36 37 37 37 36 36 35 34 33 34 35 35 36 36 37 38 39 40 42 43 45 46 47 50 50 49 50 49 51 53 53 55 57 59 58 57
56 56 57 56 56 56 56 56 56 56 53 52 51 52 52 49 47 45 44 44 44 44 45 45 44 44 43 41 40 41 44 44 43 43 43 41 41 39 38 38 38 38 37 36 37 38 37 37 35 34 35 36 35 36 35 35 34 32 32 33 34 34 35 35 36 38 38 39 41 42 44 45 47 48 49 48 50 51 53 52 52 53 55 56 56
56 56 55 56 55 55 55 54 54 52 52 48 49 48 47 46 46 45 44 43 42 43 45 45 44 44 43 42 43 42 44 43 44 42 41 40 38 38 37 36 35 36 36 35 35 36 35 35 35 34 34 34 35 35 34 34 34 32 32 32 33 33 33 34 34 35 36 38 39 41 42 43 45 45 46 47 48 49 49 51 51 52 53 54 56
55 55 55 54 54 54 54 52 52 50 51 48 47 46 46 46 44 44 41 42 42 43 43 43 43 43 43 44 44 44 43 43 42 41 41 41 39 36 35 35 35 34 34 34 34 35 34 34 34 34 36 34 35 37 34 33 33 32 32 31 32 33 32 33 34 34 35 36 38 40 40 42 43 43 44 45 46 46 46 48 49 51 52 52 52
53 53 52 51 51 51 49 49 48 48 48 47 46 45 46 43 42 43 41 42 44 43 43 42 43 42 42 43 42 43 42 41 42 40 39 39 37 37 37 37 37 37 35 35 35 36 36 34 34 35 36 34 34 34 32 33 33 33 31 30 32 30 30 32 34 35 35 37 36 38 39 40 41 42 42 43 44 45 45 46 46 47 48 49 49
47 47 47 47 47 47 47 47 46 45 44 43 42 42 42 42 43 42 41 42 42 42 42 41 41 41 40 40 40 40 40 40 39 39 39 39 38 37 38 36 36 36 34 34 35 36 34 34 33 33 34 34 34 32 31 33 32 32 32 30 29 30 29 32 34 35 35 36 36 37 38 39 40 41 42 42 42 43 44 45 46 45 45 46 46
46 45 43 44 44 45 46 46 45 44 44 43 42 41 40 41 42 43 43 42 41 40 38 38 38 38 38 38 37 37 37 37 37 37 38 40 40 38 36 38 36 35 34 34 36 33 34 33 33 32 33 34 34 34 32 30 30 29 30 28 29 30 30 32 33 34 35 37 37 37 37 38 38 39 40 41 41 42 43 43 43 45 45 44 44
44 43 43 44 43 43 43 44 43 44 43 42 41 40 39 41 41 42 41 40 39 38 37 38 37 36 36 36 36 36 36 35 35 36 36 36 36 36 37 37 35 33 34 33 33 32 32 32 33 32 33 33 34 33 32 31 30 29 28 29 30 30 31 32 33 34 34 37 37 37 37 36 37 37 38 39 40 40 41 41 42 42 42 43 43
43 43 43 43 43 42 42 42 42 40 40 40 39 38 38 37 38 38 39 38 38 37 37 37 36 36 36 36 35 34 34 34 33 34 33 34 36 36 35 35 34 33 32 32 32 34 34 33 32 32 31 32 32 32 32 32 29 29 29 29 30 31 30 31 32 33 33 36 36 35 36 37 38 37 37 38 39 38 38 41 41 41 41 42 42
42 43 42 41 40 39 39 39 39 37 38 37 35 36 37 37 35 35 37 37 37 37 36 36 36 35 33 34 33 33 35 33 32 32 32 32 32 33 32 33 33 32 32 33 32 32 32 34 34 32 31 31 31 32 30 29 29 28 29 28 29 29 30 31 32 33 33 35 36 35 36 36 37 36 35 35 37 37 37 37 37 38 39 40 41
42 41 41 39 38 39 38 37 36 36 36 37 36 36 36 36 35 34 35 35 34 35 35 35 35 33 34 33 33 33 34 34 33 31 31 32 33 32 32 32 31 33 33 32 31 31 32 32 31 32 31 30 30 29 31 29 29 30 29 29 29 29 30 31 32 32 33 34 36 35 34 36 37 37 35 33 34 35 37 36 36 36 36 35 38